This demonstration page uses our WeatherBlox Daily Observations layout. Learn more.

Left ArrowRight Arrow

Hourly Observations for March 22, 2020

Temp ( °F °C ) Dew Point ( °F °C ) Humidity (%) Winds ( mph kmh ) Pressure ( in mb ) Visibility ( mi km ) Precip ( " mm )
12:56 am 00:56 Mostly Clear 38 3.3 28 -2.2 68 68 SSE 15 24 30.19 1022 10 16 0.00 0.00
1:56 am 01:56 Clear 36 2.2 28 -2.2 73 73 S 12 19 30.16 1021 10 16 0.00 0.00
2:56 am 02:56 Clear 33 0.6 27 -2.8 78 78 S 8 13 30.14 1021 10 16 0.00 0.00
3:56 am 03:56 Clear 30 -1.1 26 -3.3 85 85 S 6 9 30.12 1020 10 16 0.00 0.00
4:56 am 04:56 Clear 29 -1.7 26 -3.3 89 89 SSE 6 9 30.11 1020 10 16 0.00 0.00
5:56 am 05:56 Clear 31 -0.6 28 -2.2 89 89 S 6 9 30.11 1020 10 16 0.00 0.00
6:56 am 06:56 Clear 31 -0.6 28 -2.2 89 89 SSE 7 11 30.10 1019 10 16 0.00 0.00
7:56 am 07:56 Partly Cloudy 31 -0.6 29 -1.7 92 92 SE 6 9 30.09 1019 10 16 0.00 0.00
8:56 am 08:56 Sunny 33 0.6 30 -1.1 89 89 SSE 5 7 30.10 1019 10 16 0.00 0.00
9:40 am 09:40 Partly Cloudy 36 2 32 0 87 87 SSE 12 19 30.12 1020 10 16 0.00 0.00
9:49 am 09:49 Mostly Cloudy 36 2 32 0 87 87 SSE 13 20 30.11 1020 10 16 0.00 0.00
9:56 am 09:56 Mostly Cloudy 37 2.8 33 0.6 86 86 SSE 13 20 30.08 1019 10 16 0.00 0.00
10:56 am 10:56 Cloudy 39 3.9 35 1.7 86 86 S 12 19 30.08 1019 10 16 0.00 0.00
11:56 am 11:56 Cloudy 42 5.6 36 2.2 79 79 S 16 26 30.08 1019 10 16 0.00 0.00
12:56 pm 12:56 Cloudy 44 6.7 38 3.3 79 79 S 15 24 30.06 1018 10 16 0.00 0.00
1:56 pm 13:56 Cloudy 46 7.8 38 3.3 73 73 S 17 28 30.05 1018 10 16 0.00 0.00
2:56 pm 14:56 Cloudy 45 7.2 39 3.9 80 80 SSE 15 24 30.02 1017 10 16 0.00 0.00
3:22 pm 15:22 Mostly Cloudy 50 10 39 4 67 67 SSE 16 26 29.98 1015 10 16 0.00 0.00
3:36 pm 15:36 Mostly Sunny 46 8 39 4 76 76 S 14 22 29.99 1016 10 16 0.00 0.00
3:56 pm 15:56 Sunny 48 8.9 39 3.9 71 71 SSE 14 22 29.98 1015 10 16 0.00 0.00
4:56 pm 16:56 Sunny 51 10.6 40 4.4 66 66 S 12 19 29.97 1015 10 16 0.00 0.00
5:56 pm 17:56 Sunny 50 10 39 3.9 66 66 S 10 17 29.99 1016 10 16 0.00 0.00
6:56 pm 18:56 Mostly Cloudy 48 8.9 40 4.4 74 74 S 7 11 30.02 1017 10 16 0.00 0.00
7:56 pm 19:56 Cloudy 46 7.8 40 4.4 79 79 S 14 22 30.00 1016 10 16 0.00 0.00
8:56 pm 20:56 Clear 43 6.1 39 3.9 86 86 S 13 20 30.01 1016 10 16 0.00 0.00
9:56 pm 21:56 Mostly Clear 39 3.9 37 2.8 93 93 S 8 13 30.03 1017 10 16 0.00 0.00
10:56 pm 22:56 Mostly Clear 37 2.8 35 1.7 93 93 S 8 13 30.06 1018 10 16 0.00 0.00
11:56 pm 23:56 Mostly Clear 34 1.1 34 1.1 100 100 S 8 13 30.07 1018 8 13 0.00 0.00

Powered by AerisWeather